GSAT0214 (GALILEO 18)

Last updated on Mon Sep 15 2025 00:02:34 GMT+0000 (Coordinated Universal Time)

1 41862U 16069D 25256.24559540 .00000012 00000+0 00000+0 0 9998 2 41862 55.3221 108.7522 0001448 334.1912 25.8867 1.70474019 54925
UTC large
Height (km)
Speed (km/s)
/
Latitude / Longitude
Inclination (degrees)
Orbital Period (minutes)
Azimuth
Elevation
Range (km)
Doppler Factor

Next 0 passes for location: London (51.5072 / 0.1276)

Sorry there are no passes over London.